星链-2130 (STARLINK-2130 )

导读 | 豆包AI

STARLINK-2130是美国太空探索技术公司(SpaceX)星链计划中的第一代低轨互联网通信卫星,于2021年1月20日由猎鹰9号火箭发射升空,运行在近地轨道。作为星链星座的组成部分,它为全球提供高速互联网接入服务,单颗卫星设计寿命超过5年,支撑起星链全球卫星互联网组网布局。

基本信息
目录编号:
47405
目录名称:
STARLINK-2130
国际标识:
2021-005BJ
轨道中心:
EARTH
卫星名称:
星链-2130
卫星全名:
星链-2130 (STARLINK-2130 )
卫星状态:
在轨 (已飞行1926 天)
发射日期:
2021-01-20 UTC
国别 :
美国 (US)
星等 :
--
轨道信息
数据来源 国际轨道数据
星历时间: 2026-04-30T12:48:57+0800
7小时前
查看轨道信息
半长轴: 6848.858km
偏心率: 0.0001216
轨道倾角: 53.157°
近地点辐角 88.017°
升交点赤经 182.962°
平近点角 272.097°
近地点: 469.888km
远地点: 471.554km
周期: 94.013分钟
每日圈数: 15.317065
详细信息
固有亮度:
5
最大亮度:
2.5
卫星平台:
Starlink V1.0
覆盖范围:
全球
运营商:
太空探索技术公司
运营商所在国:
美国
制造商(研发单位):
太空探索技术公司
制造商所在国:
美国
使用方式:
暂无
卫星简介
星链(Starlink)计划是由太空探索技术公司(SpaceX)提出的一个巨型低轨卫星互联网星座项目,计划在2019年至2024年间在太空搭建由约1.2万颗卫星组成的“星链”网络,其中1584颗将部署在地球上空550千米处的近地轨道,并从2020年开始工作。该卫星仍在工作。
2D轨道图
3D轨道图
轨道高度分析图
轨道倾角分析图
轨道综合分析图
查看轨道综合分析图